Temp
9 10 10 10 10 10 10 10 9 9 9 9 8 8 7 6 6 6 5 5 5 5
9 9 10 10 9 9 9 9 9 9 8 8 8 8 7 6 5 5 5 5 5 4
9 9 9 9 9 9 9 8 8 8 8 8 8 7 7 6 5 5 4 4 4 4
9 9 9 9 9 8 8 8 7 8 8 7 7 6 6 5 5 4 4 4 3 3
8 8 8 8 8 7 7 7 7 7 7 7 6 6 5 5 5 4 4 4 3 3
8 8 8 7 7 7 7 7 6 6 6 6 6 6 5 5 5 5 4 4 4 3
7 7 7 7 6 6 6 6 6 5 5 5 5 5 5 4 4 4 4 3 3 3
7 7 6 6 6 5 5 5 5 5 5 5 4 4 4 4 4 3 3 3 3 3
6 6 5 5 5 4 4 4 4 4 4 4 4 3 3 3 3 3 3 3 3 2
5 5 4 4 4 4 3 3 3 3 3 3 3 3 3 3 3 3 2 2 2 2
5 4 4 3 3 3 3 3 3 3 3 3 3 3 3 2 2 2 2 1 1 1
4 3 3 3 3 3 3 3 3 3 3 2 3 2 2 2 2 2 2 1 1 0
3 2 2 2 2 2 2 2 2 2 2 1 2 2 1 1 1 1 1 1 1 -0
2 2 2 2 2 2 1 1 1 1 1 1 1 1 1 1 1 0 0 1 1 0
Height
1532 1533 1533 1533 1532 1531 1530 1528 1526 1525 1522 1520 1518 1517 1515 1514 1513 1513 1512 1511 1511 1510
1529 1530 1530 1530 1529 1527 1526 1524 1523 1520 1518 1516 1514 1512 1511 1510 1510 1509 1508 1507 1506 1505
1526 1526 1526 1526 1525 1524 1522 1520 1519 1517 1515 1513 1510 1509 1507 1505 1505 1504 1504 1502 1502 1501
1523 1523 1523 1522 1521 1520 1519 1517 1515 1512 1510 1508 1507 1505 1504 1503 1501 1500 1500 1499 1497 1496
1520 1520 1519 1518 1517 1516 1515 1513 1511 1509 1506 1505 1503 1501 1500 1498 1497 1495 1494 1493 1491 1490
1516 1516 1515 1515 1514 1512 1511 1509 1507 1505 1503 1501 1499 1498 1495 1494 1492 1491 1488 1486 1484 1483
1513 1513 1512 1511 1510 1508 1506 1504 1503 1500 1498 1496 1494 1493 1492 1489 1487 1486 1483 1481 1479 1477
1510 1509 1508 1507 1505 1504 1502 1500 1498 1496 1495 1492 1490 1488 1486 1485 1482 1480 1478 1476 1474 1471
1507 1506 1504 1502 1501 1500 1498 1496 1495 1492 1490 1487 1485 1483 1482 1479 1477 1475 1472 1470 1468 1465
1503 1501 1500 1498 1496 1494 1493 1491 1490 1488 1485 1483 1481 1479 1476 1475 1472 1469 1467 1464 1463 1460
1499 1498 1496 1494 1492 1491 1489 1487 1485 1483 1481 1478 1476 1473 1471 1470 1466 1465 1462 1460 1456 1454
1496 1494 1492 1491 1489 1487 1484 1483 1480 1479 1476 1473 1473 1470 1466 1465 1461 1459 1456 1454 1451 1448
1491 1489 1488 1486 1484 1483 1480 1477 1475 1473 1472 1469 1467 1466 1462 1460 1455 1453 1450 1447 1444 1443
1486 1485 1483 1482 1480 1478 1476 1473 1471 1469 1468 1465 1462 1459 1457 1453 1448 1446 1442 1439 1437 1435
Wind_Speed
13 11 10 10 12 14 16 18 19 19 18 18 18 18 17 17 16 16 17 16 17 16
12 11 12 13 15 16 18 18 18 18 17 17 17 17 18 18 17 17 17 17 18 19
12 13 14 15 16 17 18 18 17 16 16 16 16 16 17 17 17 18 18 17 19 19
12 14 15 16 17 17 16 15 15 15 16 16 15 15 16 16 17 18 19 19 20 20
13 14 15 15 15 15 14 14 15 16 16 16 16 16 16 17 17 19 20 20 21 22
13 13 13 14 13 14 15 15 16 17 17 17 18 18 18 18 19 20 21 21 22 22
11 12 12 13 14 15 16 16 17 17 18 18 18 19 19 19 19 20 20 21 22 23
11 12 13 14 15 16 16 18 18 19 19 19 19 19 20 20 20 21 21 21 21 22
12 13 14 15 16 17 18 18 19 19 19 18 19 19 20 21 22 22 22 23 22 21
13 15 15 16 16 17 17 18 18 18 19 19 19 20 20 21 22 22 22 23 23 24
15 15 15 16 16 17 18 18 18 18 18 18 16 18 18 19 20 21 20 21 23 24
15 15 15 16 17 17 18 17 16 16 15 16 14 16 17 18 20 21 21 21 22 23
13 14 15 16 16 16 17 17 16 14 14 16 18 19 21 23 24 25 25 24 22 22
13 15 15 15 16 17 17 17 17 20 21 22 24 25 26 27 29 30 30 29 27 24
Wind_Direction
237 247 264 281 290 297 302 303 302 300 299 296 295 293 289 289 288 283 283 284 285 282
240 252 269 281 291 296 298 298 299 299 299 299 299 296 294 293 293 286 283 284 282 283
245 257 271 284 291 293 294 297 300 302 304 305 303 299 292 290 287 284 284 285 285 285
254 265 274 283 288 294 297 300 302 305 308 308 306 302 295 291 288 286 287 287 288 287
262 272 280 286 291 295 298 302 304 305 306 305 303 300 298 294 291 287 287 287 285 286
272 280 285 290 294 297 297 299 300 300 301 302 301 300 299 295 293 290 289 289 286 286
280 284 287 291 292 291 292 294 295 297 298 298 297 299 298 297 295 292 291 290 289 288
284 286 289 290 291 293 295 296 296 297 296 298 299 299 299 297 298 296 293 291 290 289
288 293 293 292 293 293 294 295 297 298 298 300 302 302 301 300 299 298 297 296 294 291
291 293 293 293 293 296 298 299 300 302 304 303 305 304 304 303 302 301 302 301 300 297
296 296 293 295 297 297 298 300 301 301 302 303 305 303 303 302 301 301 301 301 301 300
292 293 296 297 298 299 298 298 299 301 302 305 308 310 311 308 307 306 305 302 301 299
291 297 300 302 302 300 299 300 300 300 304 307 309 308 307 305 303 300 301 301 301 299
295 299 302 301 301 300 299 299 299 300 299 299 302 302 302 300 297 297 298 298 300 299